Location: Ripley
(48.3812°N, 115.4473°W)
Time: 08:10:23
(UTC+00:00)

EO-88 - Pass Details

Date: 07 July 2022
Orbit: 454 x 462 km, 97.3° (Epoch: 07 August)

Event Time Altitude Azimuth Distance (km) Brightness Sun altitude
Exits shadow 04:38:16 10° 146° (SSE) 1,655 ? -7.5°
Reaches altitude 10° 04:38:21 10° 146° (SE) 1,620 ? -7.5°
Maximum altitude 04:41:41 46° 72° (ENE) 638 ? -7.9°
Drops below altitude 10° 04:45:03 10° 359° (N) 1,629 ? -8.2°
Sets 04:47:09 0° 353° (N) 2,508 ? -8.5°
